Regional Weather Roundup
Issued by NWS

Home | Current Version | Previous Version | Graphics & Text | Print | Product List | Glossary On
Versions: 1 2 3 4 5 6 7 8 9 10 11 12 13 14 15 16 17 18 19 20 21 22 23 24 25 26 27 28 29 30 31 32 33 34 35 36 37 38 39 40 41 42 43 44 45 46 47 48 49 50
000
ASUS43 KDMX 260501
RWRIA

WEATHER ROUNDUP FOR IOWA
NATIONAL WEATHER SERVICE DES MOINES IA
1200 AM CDT MON JUN 26 2017

NOTE: "FAIR" INDICATES FEW OR NO CLOUDS BELOW 12,000 FEET WITH NO
SIGNIFICANT WEATHER AND/OR OBSTRUCTIONS TO VISIBILITY.

* - THESE STATIONS ARE NOT NWS STATIONS...THUS NOT UNDER NWS
QUALITY CONTROL.  THEY ALSO DO NOT REPORT WEATHER SUCH
AS PRECIPITATION OR FOG.

IAZ001>003-012>014-020>022-031>034-043>046-260600-
   NORTHWEST IOWA

CITY           SKY/WX    TMP DP  RH WIND       PRES   REMARKS
CARROLL *      PTCLDY    54  46  76 CALM      30.19F
CHEROKEE *     PTCLDY    54  49  85 CALM      30.19R
DENISON *      PTCLDY    52  45  76 E5        30.20F
LE MARS *      PTCLDY    54  48  82 CALM      30.18R
ORANGE CITY *  MOCLDY    59  46  63 NE8       30.21R
SHELDON *      HVY RAIN  55  50  82 VRB7G16   30.21R
SIOUX CITY     CLEAR     54  44  69 E3        30.16F
SPENCER        LGT RAIN  59  48  67 N10       30.20R
STORM LAKE *   CLEAR     54  43  66 E5        30.19S
$$

IAZ055>058-069>071-079>083-090>094-260600-
   SOUTHWEST IOWA

CITY           SKY/WX    TMP DP  RH WIND       PRES   REMARKS
ATLANTIC *     CLEAR     54  50  87 CALM      30.20R HAZE
AUDUBON *      PTCLDY    52  46  82 CALM      30.21S
CLARINDA *       N/A     52  50  93 SW5       30.23S
COUNCIL BLFS * CLEAR     61  45  55 S3        30.20S
CRESTON *      CLEAR     55  46  71 CALM      30.22F
HARLAN  *      CLEAR     52  48  87 CALM      30.23S
LAMONI         CLEAR     61  45  55 W6        30.21F
RED OAK *      CLEAR     54  52  94 CALM      30.20S
SHENANDOAH *   CLEAR     55  50  82 CALM      30.21S
$$

IAZ047>049-059>061-072>074-084-260600-
   CENTRAL IOWA

CITY           SKY/WX    TMP DP  RH WIND       PRES   REMARKS
AMES           CLEAR     53  48  83 CALM      30.19S
ANKENY *       CLEAR     54  48  82 CALM      30.21R
BOONE *        CLEAR     59  43  55 CALM      30.19S
CHARITON *     CLEAR     57  46  67 W6        30.20S
DES MOINES     CLEAR     63  45  51 CALM      30.20R
GRINNELL*      MOCLDY    57  46  68 CALM      30.20S
KNOXVILLE *    CLEAR     57  46  67 CALM      30.18S
MARSHALLTOWN   PTCLDY    53  47  79 W5        30.18S
NEWTON *       PTCLDY    55  45  67 CALM      30.20R
PELLA *        CLEAR     56  45  67 CALM      30.20F
PERRY *          N/A     54  48  81 W3        30.20R
$$

IAZ004>006-015-016-023>025-035-036-260600-
   NORTH CENTRAL IOWA

CITY           SKY/WX    TMP DP  RH WIND       PRES   REMARKS
ALGONA *       CLOUDY    59  48  67 NW9       30.20R
CLARION *        N/A     59  46  63 NW6       30.18S
ESTHERVILLE    CLOUDY    54  51  90 W8        30.18R
FORT DODGE *   MOCLDY    54  45  71 CALM      30.19F
MASON CITY     PTCLDY    53  42  66 W6        30.18S
FOREST CITY *    N/A     50  30  46 CALM      30.16F
WEBSTER CITY * CLOUDY    55  48  76 CALM      30.17S
IOWA FALLS *   MOCLDY    56  48  74 W7        30.19S
$$

IAZ007>011-017>019-026>030-037>042-050>054-066-260600-
   NORTHEAST IOWA

CITY           SKY/WX    TMP DP  RH WIND       PRES   REMARKS
CEDAR RAPIDS   CLEAR     52  45  77 W7        30.16S
CHARLES CITY * PTCLDY    52  46  82 W3        30.16S
CLINTON *      CLEAR     53  50  89 W6        30.15S
DECORAH *      CLEAR     52  45  76 SW3       30.13S
DUBUQUE        CLEAR     52  46  80 W5        30.14F
MONTICELLO *   PTCLDY    54  46  76 SW3       30.15S
WATERLOO       CLEAR     53  44  71 W3        30.16S
$$

IAZ064-065-067-068-078-260600-
   EAST CENTRAL IOWA

CITY           SKY/WX    TMP DP  RH WIND       PRES   REMARKS
DAVENPORT      PTCLDY    54  49  83 SW5       30.16S
IOWA CITY      PTCLDY    55  47  74 W5        30.18S
MT. PLEASANT * PTCLDY    57  46  65 W6        30.18S
MUSCATINE *    CLEAR     57  46  67 CALM      30.17S
QUAD CITIES    PTCLDY    56  50  80 SW3       30.15F
$$

IAZ062-063-075>077-085>089-095>099-260600-
   SOUTHEAST IOWA

CITY           SKY/WX    TMP DP  RH WIND       PRES   REMARKS
BURLINGTON     PTCLDY    59  47  64 W3        30.17S
FAIRFIELD *    PTCLDY    57  45  62 W7        30.18S
FORT MADISON * CLEAR     59  46  63 W6        30.18F
KEOKUK *       CLEAR     57  48  72 W6        30.17F
OSKALOOSA *      N/A     54  46  74 W5        30.19S
OTTUMWA        CLEAR     52  46  80 W6        30.19S
WASHINGTON *   PTCLDY    55  46  71 W6        30.19S
$$

ABBREVIATIONS USED IN REMARKS
   TC - TEMPERATURES IN CELSIUS
  WCI - WIND CHILL INDEX
   HX - HEAT INDEX
  VSB - VISIBILITY
$$




USA.gov is the U.S. government's official web portal to all federal, state and local government web resources and services.